Location: Bieg
(49.3499°N, 10.3835°E)
Time: 13:38:26
(UTC+00:00)

STARLINK-6335 - Visible Passes

Search period start: 03 October 2024 00:00
Search period end: 13 October 2024 00:00
Orbit: 558 x 560 km, 43.0° (Epoch: 03 October)

Date Brightness Start Highest point End Pass type
(mag) Time Alt. Az. Time Alt. Az. Time Alt. Az.
03 Oct ? 17:59:16 10° WSW 18:01:59 17° SSW 18:04:43 10° SSE visible
04 Oct ? 17:56:43 10° WSW 17:58:46 13° SSW 18:00:49 10° S visible
05 Oct ? 17:55:17 10° SW 17:55:31 10° SW 17:55:43 10° SSW visible
